Weather History for Gainesville, FL

Change the Weather History Date:

Tuesday, February 19, 2013

  Actual Average Record
Temperature  
Mean Temperature 59 °F 58 °F  
Max Temperature 78 °F 70 °F 88 °F (1924)
Min Temperature 40 °F 46 °F 23 °F (1958)
Degree Days  
Heating Degree Days 6 8  
Month to date heating degree days 165 169  
Since 1 July heating degree days 709 971  
Cooling Degree Days 0 1  
Month to date cooling degree days 22 15  
Year to date cooling degree days 82 27  
Growing Degree Days 10 (Base 50)    
Moisture  
Dew Point 51 °F    
Average Humidity 66    
Maximum Humidity 93    
Minimum Humidity 39    
Precipitation  
Precipitation T in 0.11 in 3.64 in (1901)
Month to date precipitation 0.42 2.12  
Year to date precipitation 0.75 5.43  
Snow  
Snow 0.00 in 0.00 in 0.00 in ()
Month to date snowfall 0.0 0.0  
Since 1 July snowfall 0.0 0.0  
Snow Depth 0.00 in    
Sea Level Pressure  
Sea Level Pressure 30.13 in    
Wind  
Wind Speed 9 mph (SW)    
Max Wind Speed 23 mph    
Max Gust Speed -    
Visibility 10 miles    
Events      
T = Trace of Precipitation, MM = Missing Value Source: NWS Daily Summary

Daily Weather History Graph

Daily Weather History Graph

Search for Another Location

Airport:

Trip Planner

Search our weather history database for the weather conditions in past years. The results will help you decide how hot, cold, wet, or windy it might be!

Date:

Astronomy

Feb. 19, 2013 Rise Set
Actual Time 7:04 AM EST 6:21 PM EST
Civil Twilight 6:40 AM EST 6:45 PM EST
Nautical Twilight 6:12 AM EST 7:13 PM EST
Astronomical Twilight 5:44 AM EST 7:41 PM EST
Moon 1:05 PM EST (2/19) 2:22 AM EST (2/19)
Length of Visible Light 12h 05m
Length of Day
11h 16m
Waxing Gibbous, 67% of the Moon is Illuminated
Feb 19
Waxing Gibbous
Feb 25
Full
Mar 4
Last Quarter
Mar 11
New
Mar 19
First Quarter

Hourly Weather History & Observations

Time (EST) Temp. Dew Point Humidity Pressure Visibility Wind Dir Wind Speed Gust Speed Precip Events Conditions
12:53 AM 43.0 °F 39.0 °F 86% 30.25 in 10.0 mi Calm Calm - N/A   Clear
1:53 AM 42.1 °F 39.0 °F 89% 30.22 in 10.0 mi Calm Calm - N/A   Clear
2:53 AM 46.9 °F 43.0 °F 86% 30.18 in 10.0 mi SSE 6.9 mph - N/A   Clear
3:53 AM 48.9 °F 43.0 °F 80% 30.18 in 10.0 mi SSE 4.6 mph - N/A   Clear
4:53 AM 48.9 °F 43.0 °F 80% 30.17 in 10.0 mi South 4.6 mph - N/A   Clear
5:53 AM 48.0 °F 43.0 °F 83% 30.17 in 10.0 mi South 4.6 mph - N/A   Clear
6:53 AM 48.0 °F 42.1 °F 80% 30.17 in 10.0 mi SSE 4.6 mph - N/A   Clear
7:53 AM 51.1 °F 45.0 °F 80% 30.17 in 10.0 mi South 6.9 mph - N/A   Clear
8:53 AM 60.1 °F 48.9 °F 67% 30.19 in 10.0 mi South 8.1 mph - N/A   Clear
9:53 AM 66.9 °F 51.1 °F 57% 30.18 in 10.0 mi SSE 10.4 mph - N/A   Clear
10:53 AM 71.1 °F 50.0 °F 47% 30.18 in 10.0 mi SSW 16.1 mph - N/A   Clear
11:53 AM 73.0 °F 48.9 °F 42% 30.16 in 10.0 mi WSW 13.8 mph - N/A   Scattered Clouds
1:53 PM 77.0 °F 50.0 °F 39% 30.08 in 10.0 mi WSW 16.1 mph - N/A   Mostly Cloudy
2:53 PM 77.0 °F 51.1 °F 40% 30.06 in 10.0 mi WSW 21.9 mph - N/A   Scattered Clouds
3:53 PM 75.0 °F 52.0 °F 44% 30.06 in 10.0 mi SW 15.0 mph - N/A   Mostly Cloudy
4:53 PM 72.0 °F 53.1 °F 51% 30.06 in 10.0 mi SW 15.0 mph - N/A   Scattered Clouds
5:53 PM 70.0 °F 55.0 °F 59% 30.07 in 10.0 mi SW 12.7 mph - N/A   Scattered Clouds
7:53 PM 68.0 °F 57.0 °F 68% 30.09 in 10.0 mi SW 8.1 mph - N/A   Overcast
8:53 PM 66.0 °F 59.0 °F 78% 30.10 in 10.0 mi WSW 9.2 mph - 0.00 in   Overcast
9:53 PM 64.0 °F 60.1 °F 87% 30.10 in 10.0 mi SW 6.9 mph - N/A   Overcast
10:30 PM 64.4 °F 60.8 °F 88% 30.11 in 10.0 mi West 5.8 mph - N/A   Overcast
10:53 PM 63.0 °F 60.1 °F 90% 30.10 in 10.0 mi WSW 5.8 mph - N/A   Overcast
11:14 PM 62.6 °F 60.8 °F 94% 30.11 in 10.0 mi West 4.6 mph - N/A   Overcast
11:28 PM 62.6 °F 60.8 °F 94% 30.12 in 10.0 mi West 5.8 mph - N/A   Overcast
11:40 PM 62.6 °F 60.8 °F 94% 30.11 in 10.0 mi West 5.8 mph - 0.00 in   Overcast
11:53 PM 62.1 °F 60.1 °F 93% 30.11 in 10.0 mi West 4.6 mph - 0.00 in   Overcast